Lexington Weather

Lexington, Massachusetts, USA

27°F
2/29/2020 12:53am 
  • Lexington Conditions: Clear
  • Temperature: 27.0°F / -2.8°CColder 0.9°F than last hour.
  • Dew Point: 14.5°FIncreased 1.6°Fsince last hour.
  • Relative Humidity: 59%Increased 6.0% since last hour.
  • Wind: Calm, 10-min avg: Calm, gust: None
  • Barometer: 29.75 in Steady
  • Visibility: 10 miles
  • Snow Today: 0.0 in
  •   

Regional Weather Roundup
for Boston / Norton, MA

        
000
ASUS41 KBOX 281801
RWRBOX

REGIONAL WEATHER ROUNDUP
NATIONAL WEATHER SERVICE BOSTON/NORTON MA
100 PM EST FRI FEB 28 2020

NOTE:  "FAIR" INDICATES FEW OR NO CLOUDS BELOW 12,000 FEET WITH NO 
SIGNIFICANT WEATHER AND/OR OBSTRUCTIONS TO VISIBILITY.

MAZALL-281900-
EASTERN MASSACHUSETTS
  
CITY           SKY/WX    TMP DP  RH WIND       PRES   REMARKS
BOSTON         FAIR      35   9  33 W16G25    29.71F WCI  25          
6HR MIN TEMP:  31; 6HR MAX TEMP:  36;                                

BEVERLY        FAIR      37   9  31 W14G24    29.69F WCI  28          
LAWRENCE       FAIR      36  10  34 SW15G28   29.70F WCI  27          
BEDFORD        FAIR      38   5  25 SW16G29   29.70F WCI  29          
BLUE HILL        N/A     34   7  32 SW17G25   29.67F WCI  23          
NORWOOD        FAIR      40   8  26 W18G24    29.71F WCI  31          
MARSHFIELD     NOT AVBL                                               
PLYMOUTH       FAIR      37  12  35 W18G25    29.72F WCI  27          
TAUNTON        FAIR      37  10  32 W10G22    29.73F WCI  30          
NEW BEDFORD    FAIR      37  12  35 W17       29.73F WCI  27          
$$

MAZALL-281900-
CAPE COD AND THE ISLANDS
  
CITY           SKY/WX    TMP DP  RH WIND       PRES   REMARKS
FALMOUTH       SUNNY     36  16  44 SW25G36   29.74F WCI  23          
HYANNIS        NOT AVBL                                               
CHATHAM        FAIR      36  18  48 SW15G30   29.76F WCI  27          
PROVINCETOWN   FAIR      38  13  35 SW20G25   29.73F WCI  28          
NANTUCKET      FAIR      39  19  44 W28G37    29.78F WCI  28          
MARTHAS VNYRD  FAIR      36  17  46 W20G30    29.77F WCI  25          
$$
 
MAZALL-281900-
CENTRAL AND WESTERN MASSACHUSETTS
  
CITY           SKY/WX    TMP DP  RH WIND       PRES   REMARKS
WORCESTER      FAIR      32   8  36 SW22G36   29.66F WCI  19          
6HR MIN TEMP:  23; 6HR MAX TEMP:  32;                                

FITCHBURG      FAIR      34   6  31 W18G29    29.69F WCI  23          
ORANGE         PTSUNNY   33   6  32 W13G28    29.69F WCI  24          
SPRINGFIELD    MOSUNNY   34   8  32 W13G23    29.71F WCI  25          
WESTFIELD      PTSUNNY   35   7  31 SW17G26   29.72F WCI  25          
NORTH ADAMS    CLOUDY    29   9  43 W17G24    29.69F WCI  17          
PITTSFIELD     CLOUDY    28  10  46 W20       29.65F WCI  15          
$$
 
RIZALL-281900-
RHODE ISLAND
  
CITY           SKY/WX    TMP DP  RH WIND       PRES   REMARKS
PROVIDENCE     FAIR      37  11  34 W17G23    29.75F WCI  27          
6HR MIN TEMP:  29; 6HR MAX TEMP:  38;                                

NEWPORT        FAIR      37  14  38 SW8G21    29.75F WCI  31          
BLOCK ISLAND   FAIR      36  15  42 W21G32    29.78F WCI  25          
SMITHFIELD     FAIR      34   8  33 SW10G18   29.71F WCI  26          
WESTERLY       FAIR      37  13  37 SW22G30   29.78F WCI  26          
$$
 
CTZALL-281900-
CONNECTICUT
  
CITY           SKY/WX    TMP DP  RH WIND       PRES   REMARKS
BRADLEY INTL   PTSUNNY   37   8  30 SW21G29   29.74F WCI  26          
6HR MIN TEMP:  27; 6HR MAX TEMP:  38;                                

HARTFORD       PTSUNNY   36   9  32 W14G22    29.76F WCI  27          
BRIDGEPORT     FAIR      39  10  30 SW20G28   29.78F WCI  29          
DANBURY        FAIR      35   8  32 W16G25    29.76F WCI  25          
GROTON         NOT AVBL                                               
NEW HAVEN      FAIR      39  15  37 SW15G25   29.77F WCI  31          
CHESTER        NOT AVBL                                               
MERIDEN        FAIR      35   9  33 W16G23    29.76F WCI  25          
WILLIMANTIC    FAIR      35  10  35 W13G24    29.75F WCI  26          
OXFORD         PTSUNNY   33  10  38 W13G21    29.74F WCI  24          
$$

MEZ002-015-021-024-NHZ003-005-008-011-012-014-VTZ005-008-281900-
NORTHERN NEW ENGLAND
  
CITY           SKY/WX    TMP DP  RH WIND       PRES   REMARKS
PORTLAND ME    PTSUNNY   35   8  32 W16G26    29.64S WCI  25          
6HR MIN TEMP:  28; 6HR MAX TEMP:  37;                                

BANGOR ME      PTSUNNY   33  10  38 SW15G23   29.57S WCI  23          
CONCORD NH     PTSUNNY   32   9  38 SW14G29   29.67F WCI  22          
MANCHESTER NH  PTSUNNY   35   5  28 W13G21    29.66F WCI  26          
NASHUA NH      PTSUNNY   33   6  32 W12G22    29.69F WCI  24          
PORTSMOUTH NH  MOSUNNY   36   4  26 SW18G30   29.65F WCI  25          
JAFFREY NH     PTSUNNY   30   7  37 W12G26    29.64F WCI  20          
KEENE NH       PTSUNNY   30  10  43 W13G21    29.68F WCI  20          
BURLINGTON VT  LGT SNOW  26  19  74 W9        29.60S VSB 1   WCI  17  
MT. WASHINGTON SNOWSHWR   1   1 100 W64G74      N/A  VSB 1/16WCI -32  
$$

NYZ052-076-281900-
EASTERN NEW YORK
  
CITY           SKY/WX    TMP DP  RH WIND       PRES   REMARKS
ALBANY         PTSUNNY   34   8  33 SW17G25   29.72F WCI  23          
6HR MIN TEMP:  27; 6HR MAX TEMP:  35;                                

NEW YORK CITY  FAIR      40   9  28 SW22G32   29.80F WCI  30          
6HR MIN TEMP:  30; 6HR MAX TEMP:  40;                                

$$
 
ANZALL-281900-
MARINE OBSERVATIONS
  
STATION/POSITION TIME  TEMP    WIND        PRES    VSBY  WAVE
                       AIR SEA DIR/SP/G                  HT/PER
                 (UTC) (F)     (DEG/KT/KT) (MB)    (MI)  (FT/S)
BOSTON BUOY      1650   33 41  250/ 17/ 23 1006.1          3/ 4
BUZZARDS BAY     1700          260/ 30/ 32 1009.3F
NANTUCKET SOUND  NOT AVBL
MASS BAY-STELLWA 1704   33 41  280/ 19/ 23 1004.4F  1 7/8  4/ 5
ISLE OF SHOALS   1700   32     260/ 26/ 28 1004.4F
S OF BLOCK IS    1730      44                N/A          12/ 8
$$

......................KEY.........................
  SKY/WX - SKY CONDITION/PRESENT WEATHER
  TMP    - TEMPERATURE IN FAHRENHEIT
  DWPT   - DEWPOINT IN FAHRENHEIT
  RH     - RELATIVE HUMIDITY IN PERCENT
  WIND   - DIRECTION AND SPEED IN MPH
  PRES   - MEAN SEA LEVEL PRESSURE IN INCHES OF HG
  WCI    - WIND CHILL INDEX
  VSB    - VISIBILITY IN MILES
  HX     - HEAT INDEX
  TC     - TEMPERATURE IN CELSIUS
  VRB    - VARIABLE WIND DIRECTION
  N/A    - NOT AVAILABLE
  
      

Other recent Regional Weather Roundups

Sat Feb 29, 12:10am

Sat Feb 29, 12:00am

Fri Feb 28, 11:10pm

Fri Feb 28, 11:00pm

Fri Feb 28, 10:10pm

Fri Feb 28, 10:00pm

Fri Feb 28, 9:10pm

Fri Feb 28, 9:00pm

Fri Feb 28, 8:10pm

Fri Feb 28, 8:01pm

Fri Feb 28, 7:10pm

Fri Feb 28, 7:00pm

Fri Feb 28, 6:10pm

Fri Feb 28, 6:01pm

Fri Feb 28, 5:10pm

Fri Feb 28, 5:00pm

Fri Feb 28, 4:10pm

Fri Feb 28, 4:01pm

Fri Feb 28, 3:10pm

Fri Feb 28, 3:00pm

Fri Feb 28, 2:10pm

Fri Feb 28, 2:00pm

Fri Feb 28, 1:10pm

Fri Feb 28, 12:10pm

Fri Feb 28, 12:01pm

Fri Feb 28, 11:10am

Fri Feb 28, 11:00am

Fri Feb 28, 10:10am

Fri Feb 28, 10:00am

Fri Feb 28, 9:10am

Fri Feb 28, 9:01am

Fri Feb 28, 8:10am

Fri Feb 28, 8:00am

Fri Feb 28, 7:10am

Fri Feb 28, 7:00am

Fri Feb 28, 6:10am

Fri Feb 28, 6:00am

Fri Feb 28, 5:10am

Fri Feb 28, 5:00am

Fri Feb 28, 4:10am

Fri Feb 28, 4:00am

Fri Feb 28, 3:10am

Fri Feb 28, 3:00am

Fri Feb 28, 2:10am

Fri Feb 28, 2:00am

Fri Feb 28, 1:10am

Fri Feb 28, 1:00am

Fri Feb 28, 12:10am

Fri Feb 28, 12:00am

Thu Feb 27, 11:10pm

Thu Feb 27, 11:01pm

Thu Feb 27, 10:10pm

Thu Feb 27, 10:00pm

Thu Feb 27, 9:10pm

Thu Feb 27, 9:00pm

Thu Feb 27, 8:10pm

Thu Feb 27, 8:01pm

Thu Feb 27, 7:10pm

Thu Feb 27, 7:00pm

Wed Feb 26, 11:10am

Wed Feb 26, 11:00am

Wed Feb 26, 10:10am

Wed Feb 26, 10:01am

Wed Feb 26, 9:10am

Wed Feb 26, 9:00am

Wed Feb 26, 8:10am

Wed Feb 26, 8:00am

Wed Feb 26, 7:10am

Wed Feb 26, 7:00am

Wed Feb 26, 6:10am

Wed Feb 26, 6:00am

Wed Feb 26, 5:10am

Wed Feb 26, 5:00am

Wed Feb 26, 4:10am

Wed Feb 26, 4:00am

Wed Feb 26, 3:10am

Wed Feb 26, 3:00am

Wed Feb 26, 2:10am

Wed Feb 26, 2:00am

Wed Feb 26, 1:10am

Wed Feb 26, 1:00am

Meta data:

ID: 008773cc-4c1f-4640-8a42-386347e6e99c
Link: https://api.weather.gov/products/008773cc-4c1f-4640-8a42-386347e6e99c